Location: Dillon
(41.1766°N, 107.0923°W)
Time: 11:01:16
(UTC+00:00)

AO-92 - Pass Details

Date: 02 July 2022
Orbit: 469 x 481 km, 97.4° (Epoch: 09 August)

Event Time Altitude Azimuth Distance (km) Brightness Sun altitude
Exits shadow 05:07:05 64° 125° (SE) 537 ? -19.5°
Maximum altitude 05:07:29 72° 77° (ENE) 509 ? -19.5°
Drops below altitude 10° 05:11:03 10° 352° (N) 1,666 ? -19.9°
Sets 05:13:08 0° 351° (N) 2,553 ? -20.1°
